sat.trackr.live / text

‹ back to catalog

STARLINK-4481

NORAD 53418 · 2022-097AG

PAYLOAD ACTIVE UNKNOWN

§ Identity

Operator
Country
US
Launch date
2022-08-10
Launch site
AFETR
Launch vehicle
Mass (kg)
RCS (m²)

Purposes: comms

External: N2YO · Heavens-Above · Gunter

§ Orbital elements

Epoch: 2026-09-19T17:03:39.118752Z

Period
93.85 min
Inclination
53.1601°
Eccentricity
0.0001225
Mean motion
15.34389041 rev/d
Perigee alt
461.9 km
Apogee alt
463.6 km
Semi-major
6,840.9 km
B*
2.3940e-5
RAAN
297.0853°
Arg perigee
77.2526°
Mean anomaly
282.8613°
Rev number
22,830

§ Raw data

STARLINK-44811 53418U 22097AG  26262.71086943  .00000432  00000+0  23940-4 0  99972 53418  53.1601 297.0853 0001225  77.2526 282.8613 15.34389041228305

JSON: /api/v1/satellites/53418 · /tle

For live sub-satellite position, see the globe view (requires WebGL).

§ Visibility from observer

Set your observer location to see the next 7 days of passes ≥ 10°. The values pass through the URL so the page stays shareable.

No JS? Fill the form by hand. The geolocation button needs JavaScript.